#datetime,building,power
2022-10-17T00:00:00,axn,28.46
2022-10-17T00:01:00,axn,28.29
2022-10-17T00:02:00,axn,28.40
2022-10-17T00:03:00,axn,28.29
2022-10-17T00:04:00,axn,28.36
2022-10-17T00:05:00,axn,28.24
2022-10-17T00:06:00,axn,27.95
2022-10-17T00:07:00,axn,27.51
2022-10-17T00:08:00,axn,27.41
2022-10-17T00:09:00,axn,27.52
2022-10-17T00:10:00,axn,27.24
2022-10-17T00:11:00,axn,27.31
2022-10-17T00:12:00,axn,27.11
2022-10-17T00:13:00,axn,27.77
2022-10-17T00:14:00,axn,27.08
2022-10-17T00:15:00,axn,27.25
2022-10-17T00:16:00,axn,27.43
2022-10-17T00:17:00,axn,27.18
2022-10-17T00:18:00,axn,26.95
2022-10-17T00:19:00,axn,26.86
2022-10-17T00:20:00,axn,26.79
2022-10-17T00:21:00,axn,26.82
2022-10-17T00:22:00,axn,26.86
2022-10-17T00:23:00,axn,26.85
2022-10-17T00:24:00,axn,26.82
2022-10-17T00:25:00,axn,26.96
2022-10-17T00:26:00,axn,27.43
2022-10-17T00:27:00,axn,27.17
2022-10-17T00:28:00,axn,27.22
2022-10-17T00:29:00,axn,27.33
2022-10-17T00:30:00,axn,27.14
2022-10-17T00:31:00,axn,27.22
2022-10-17T00:32:00,axn,27.16
2022-10-17T00:33:00,axn,41.85
2022-10-17T00:34:00,axn,41.60
2022-10-17T00:35:00,axn,41.68
2022-10-17T00:36:00,axn,41.35
2022-10-17T00:37:00,axn,40.87
2022-10-17T00:38:00,axn,27.12
2022-10-17T00:39:00,axn,27.23
2022-10-17T00:40:00,axn,27.30
2022-10-17T00:41:00,axn,27.35
2022-10-17T00:42:00,axn,27.31
2022-10-17T00:43:00,axn,27.51
2022-10-17T00:44:00,axn,27.08
2022-10-17T00:45:00,axn,27.04
2022-10-17T00:46:00,axn,27.07
2022-10-17T00:47:00,axn,27.19
2022-10-17T00:48:00,axn,27.21
2022-10-17T00:49:00,axn,27.35
2022-10-17T00:50:00,axn,27.19
2022-10-17T00:51:00,axn,27.25
2022-10-17T00:52:00,axn,27.68
2022-10-17T00:53:00,axn,27.16
2022-10-17T00:54:00,axn,27.05
2022-10-17T00:55:00,axn,27.20
2022-10-17T00:56:00,axn,27.53
2022-10-17T00:57:00,axn,27.44
2022-10-17T00:58:00,axn,27.34
2022-10-17T00:59:00,axn,27.41
2022-10-17T01:00:00,axn,27.43
2022-10-17T01:01:00,axn,27.41
2022-10-17T01:02:00,axn,28.02
2022-10-17T01:03:00,axn,27.81
2022-10-17T01:04:00,axn,27.40
2022-10-17T01:05:00,axn,27.50
2022-10-17T01:06:00,axn,27.29
2022-10-17T01:07:00,axn,27.21
2022-10-17T01:08:00,axn,27.35
2022-10-17T01:09:00,axn,27.43
2022-10-17T01:10:00,axn,27.70
2022-10-17T01:11:00,axn,28.29
2022-10-17T01:12:00,axn,28.14
2022-10-17T01:13:00,axn,28.16
2022-10-17T01:14:00,axn,27.83
2022-10-17T01:15:00,axn,28.23
2022-10-17T01:16:00,axn,28.67
2022-10-17T01:17:00,axn,27.70
2022-10-17T01:18:00,axn,27.70
2022-10-17T01:19:00,axn,27.81
2022-10-17T01:20:00,axn,28.13
2022-10-17T01:21:00,axn,27.85
2022-10-17T01:22:00,axn,28.27
2022-10-17T01:23:00,axn,27.76
2022-10-17T01:24:00,axn,27.29
2022-10-17T01:25:00,axn,27.21
2022-10-17T01:26:00,axn,27.60
2022-10-17T01:27:00,axn,27.17
2022-10-17T01:28:00,axn,27.30
2022-10-17T01:29:00,axn,27.46
2022-10-17T01:30:00,axn,27.47
2022-10-17T01:31:00,axn,27.34
2022-10-17T01:32:00,axn,27.43
2022-10-17T01:33:00,axn,27.80
2022-10-17T01:34:00,axn,27.38
2022-10-17T01:35:00,axn,27.29
2022-10-17T01:36:00,axn,27.38
2022-10-17T01:37:00,axn,27.25
2022-10-17T01:38:00,axn,27.37
2022-10-17T01:39:00,axn,27.37
2022-10-17T01:40:00,axn,27.14
2022-10-17T01:41:00,axn,27.56
2022-10-17T01:42:00,axn,27.28
2022-10-17T01:43:00,axn,27.28
2022-10-17T01:44:00,axn,27.28
2022-10-17T01:45:00,axn,27.38
2022-10-17T01:46:00,axn,27.24
2022-10-17T01:47:00,axn,27.44
2022-10-17T01:48:00,axn,27.13
2022-10-17T01:49:00,axn,27.39
2022-10-17T01:50:00,axn,27.50
2022-10-17T01:51:00,axn,27.66
2022-10-17T01:52:00,axn,27.47
2022-10-17T01:53:00,axn,27.47
2022-10-17T01:54:00,axn,27.37
2022-10-17T01:55:00,axn,27.42
2022-10-17T01:56:00,axn,27.30
2022-10-17T01:57:00,axn,27.71
2022-10-17T01:58:00,axn,27.32
2022-10-17T01:59:00,axn,27.69
2022-10-17T02:00:00,axn,27.46
2022-10-17T02:01:00,axn,27.63
2022-10-17T02:02:00,axn,27.53
2022-10-17T02:03:00,axn,30.60
2022-10-17T02:04:00,axn,27.60
2022-10-17T02:05:00,axn,27.56
2022-10-17T02:06:00,axn,27.48
2022-10-17T02:07:00,axn,27.52
2022-10-17T02:08:00,axn,27.44
2022-10-17T02:09:00,axn,27.34
2022-10-17T02:10:00,axn,27.57
2022-10-17T02:11:00,axn,27.76
2022-10-17T02:12:00,axn,27.62
2022-10-17T02:13:00,axn,28.16
2022-10-17T02:14:00,axn,28.30
2022-10-17T02:15:00,axn,28.07
2022-10-17T02:16:00,axn,28.24
2022-10-17T02:17:00,axn,27.84
2022-10-17T02:18:00,axn,27.83
2022-10-17T02:19:00,axn,27.89
2022-10-17T02:20:00,axn,27.76
2022-10-17T02:21:00,axn,27.82
2022-10-17T02:22:00,axn,27.68
2022-10-17T02:23:00,axn,27.78
2022-10-17T02:24:00,axn,27.82
2022-10-17T02:25:00,axn,28.19
2022-10-17T02:26:00,axn,27.85
2022-10-17T02:27:00,axn,27.77
2022-10-17T02:28:00,axn,27.74
2022-10-17T02:29:00,axn,27.91
2022-10-17T02:30:00,axn,28.03
2022-10-17T02:31:00,axn,27.90
2022-10-17T02:32:00,axn,27.76
2022-10-17T02:33:00,axn,27.86
2022-10-17T02:34:00,axn,27.66
2022-10-17T02:35:00,axn,27.61
2022-10-17T02:36:00,axn,27.81
2022-10-17T02:37:00,axn,27.54
2022-10-17T02:38:00,axn,27.52
2022-10-17T02:39:00,axn,27.51
2022-10-17T02:40:00,axn,27.70
2022-10-17T02:41:00,axn,27.74
2022-10-17T02:42:00,axn,27.72
2022-10-17T02:43:00,axn,27.69
2022-10-17T02:44:00,axn,27.83
2022-10-17T02:45:00,axn,27.60
2022-10-17T02:46:00,axn,27.53
2022-10-17T02:47:00,axn,38.01
2022-10-17T02:48:00,axn,37.85
2022-10-17T02:49:00,axn,37.78
2022-10-17T02:50:00,axn,37.63
2022-10-17T02:51:00,axn,37.67
2022-10-17T02:52:00,axn,27.41
2022-10-17T02:53:00,axn,30.28
2022-10-17T02:54:00,axn,30.23
2022-10-17T02:55:00,axn,30.09
2022-10-17T02:56:00,axn,27.53
2022-10-17T02:57:00,axn,27.38
2022-10-17T02:58:00,axn,27.31
2022-10-17T02:59:00,axn,27.50
2022-10-17T03:00:00,axn,27.55
2022-10-17T03:01:00,axn,27.44
2022-10-17T03:02:00,axn,27.32
2022-10-17T03:03:00,axn,27.27
2022-10-17T03:04:00,axn,27.19
2022-10-17T03:05:00,axn,27.29
2022-10-17T03:06:00,axn,26.73
2022-10-17T03:07:00,axn,26.82
2022-10-17T03:08:00,axn,27.03
2022-10-17T03:09:00,axn,27.02
2022-10-17T03:10:00,axn,26.95
2022-10-17T03:11:00,axn,27.02
2022-10-17T03:12:00,axn,27.14
2022-10-17T03:13:00,axn,27.07
2022-10-17T03:14:00,axn,27.22
2022-10-17T03:15:00,axn,27.24
2022-10-17T03:16:00,axn,27.38
2022-10-17T03:17:00,axn,27.33
2022-10-17T03:18:00,axn,27.27
2022-10-17T03:19:00,axn,27.43
2022-10-17T03:20:00,axn,27.44
2022-10-17T03:21:00,axn,27.20
2022-10-17T03:22:00,axn,26.99
2022-10-17T03:23:00,axn,26.87
2022-10-17T03:24:00,axn,27.00
2022-10-17T03:25:00,axn,26.85
2022-10-17T03:26:00,axn,27.04
2022-10-17T03:27:00,axn,27.04
2022-10-17T03:28:00,axn,27.09
2022-10-17T03:29:00,axn,27.17
2022-10-17T03:30:00,axn,27.27
2022-10-17T03:31:00,axn,27.53
2022-10-17T03:32:00,axn,27.21
2022-10-17T03:33:00,axn,27.12
2022-10-17T03:34:00,axn,27.05
2022-10-17T03:35:00,axn,26.99
2022-10-17T03:36:00,axn,27.21
2022-10-17T03:37:00,axn,27.30
2022-10-17T03:38:00,axn,26.95
2022-10-17T03:39:00,axn,26.90
2022-10-17T03:40:00,axn,26.99
2022-10-17T03:41:00,axn,26.95
2022-10-17T03:42:00,axn,27.99
2022-10-17T03:43:00,axn,27.30
2022-10-17T03:44:00,axn,27.77
2022-10-17T03:45:00,axn,27.68
2022-10-17T03:46:00,axn,27.40
2022-10-17T03:47:00,axn,27.38
2022-10-17T03:48:00,axn,27.46
2022-10-17T03:49:00,axn,27.76
2022-10-17T03:50:00,axn,27.47
2022-10-17T03:51:00,axn,27.40
2022-10-17T03:52:00,axn,27.29
2022-10-17T03:53:00,axn,27.35
2022-10-17T03:54:00,axn,27.23
2022-10-17T03:55:00,axn,27.15
2022-10-17T03:56:00,axn,27.37
2022-10-17T03:57:00,axn,27.15
2022-10-17T03:58:00,axn,27.39
2022-10-17T03:59:00,axn,27.48
2022-10-17T04:00:00,axn,27.41
2022-10-17T04:01:00,axn,27.43
2022-10-17T04:02:00,axn,27.46
2022-10-17T04:03:00,axn,27.87
2022-10-17T04:04:00,axn,27.37
2022-10-17T04:05:00,axn,27.26
2022-10-17T04:06:00,axn,27.43
2022-10-17T04:07:00,axn,27.19
2022-10-17T04:08:00,axn,27.37
2022-10-17T04:09:00,axn,27.61
2022-10-17T04:10:00,axn,27.47
2022-10-17T04:11:00,axn,27.79
2022-10-17T04:12:00,axn,27.62
2022-10-17T04:13:00,axn,27.33
2022-10-17T04:14:00,axn,27.39
2022-10-17T04:15:00,axn,27.63
2022-10-17T04:16:00,axn,27.53
2022-10-17T04:17:00,axn,27.66
2022-10-17T04:18:00,axn,28.15
2022-10-17T04:19:00,axn,27.86
2022-10-17T04:20:00,axn,44.27
2022-10-17T04:21:00,axn,27.93
2022-10-17T04:22:00,axn,28.84
2022-10-17T04:23:00,axn,28.57
2022-10-17T04:24:00,axn,28.74
2022-10-17T04:25:00,axn,28.70
2022-10-17T04:26:00,axn,28.75
2022-10-17T04:27:00,axn,28.72
2022-10-17T04:28:00,axn,28.57
2022-10-17T04:29:00,axn,28.42
2022-10-17T04:30:00,axn,28.41
2022-10-17T04:31:00,axn,32.86
2022-10-17T04:32:00,axn,32.87
2022-10-17T04:33:00,axn,32.84
2022-10-17T04:34:00,axn,28.54
2022-10-17T04:35:00,axn,28.39
2022-10-17T04:36:00,axn,28.37
2022-10-17T04:37:00,axn,28.37
2022-10-17T04:38:00,axn,28.23
2022-10-17T04:39:00,axn,28.04
2022-10-17T04:40:00,axn,28.10
2022-10-17T04:41:00,axn,28.10
2022-10-17T04:42:00,axn,27.96
2022-10-17T04:43:00,axn,27.94
2022-10-17T04:44:00,axn,27.84
2022-10-17T04:45:00,axn,28.01
2022-10-17T04:46:00,axn,27.95
2022-10-17T04:47:00,axn,27.94
2022-10-17T04:48:00,axn,28.36
2022-10-17T04:49:00,axn,28.04
2022-10-17T04:50:00,axn,28.51
2022-10-17T04:51:00,axn,27.97
2022-10-17T04:52:00,axn,28.28
2022-10-17T04:53:00,axn,28.26
2022-10-17T04:54:00,axn,28.21
2022-10-17T04:55:00,axn,28.20
2022-10-17T04:56:00,axn,28.31
2022-10-17T04:57:00,axn,28.19
2022-10-17T04:58:00,axn,28.20
2022-10-17T04:59:00,axn,28.06
2022-10-17T05:00:00,axn,27.98
2022-10-17T05:01:00,axn,25.44
2022-10-17T05:02:00,axn,25.52
2022-10-17T05:03:00,axn,28.29
2022-10-17T05:04:00,axn,28.22
2022-10-17T05:05:00,axn,25.69
2022-10-17T05:06:00,axn,25.96
2022-10-17T05:07:00,axn,32.65
2022-10-17T05:08:00,axn,25.39
2022-10-17T05:09:00,axn,25.35
2022-10-17T05:10:00,axn,25.35
2022-10-17T05:11:00,axn,25.37
2022-10-17T05:12:00,axn,25.50
2022-10-17T05:13:00,axn,25.59
2022-10-17T05:14:00,axn,25.56
2022-10-17T05:15:00,axn,25.91
2022-10-17T05:16:00,axn,25.31
2022-10-17T05:17:00,axn,25.48
2022-10-17T05:18:00,axn,25.74
2022-10-17T05:19:00,axn,25.29
2022-10-17T05:20:00,axn,25.30
2022-10-17T05:21:00,axn,25.08
2022-10-17T05:22:00,axn,25.15
2022-10-17T05:23:00,axn,25.30
2022-10-17T05:24:00,axn,25.10
2022-10-17T05:25:00,axn,25.36
2022-10-17T05:26:00,axn,25.78
2022-10-17T05:27:00,axn,25.60
2022-10-17T05:28:00,axn,25.69
2022-10-17T05:29:00,axn,25.78
2022-10-17T05:30:00,axn,25.67
2022-10-17T05:31:00,axn,28.20
2022-10-17T05:32:00,axn,28.59
2022-10-17T05:33:00,axn,28.58
2022-10-17T05:34:00,axn,28.92
2022-10-17T05:35:00,axn,29.10
2022-10-17T05:36:00,axn,28.94
2022-10-17T05:37:00,axn,28.85
2022-10-17T05:38:00,axn,26.49
2022-10-17T05:39:00,axn,26.36
2022-10-17T05:40:00,axn,26.36
2022-10-17T05:41:00,axn,26.17
2022-10-17T05:42:00,axn,26.55
2022-10-17T05:43:00,axn,26.47
2022-10-17T05:44:00,axn,26.56
2022-10-17T05:45:00,axn,27.22
2022-10-17T05:46:00,axn,28.87
2022-10-17T05:47:00,axn,27.78
2022-10-17T05:48:00,axn,27.86
2022-10-17T05:49:00,axn,27.55
2022-10-17T05:50:00,axn,27.57
2022-10-17T05:51:00,axn,27.46
2022-10-17T05:52:00,axn,38.11
2022-10-17T05:53:00,axn,27.35
2022-10-17T05:54:00,axn,27.65
2022-10-17T05:55:00,axn,28.22
2022-10-17T05:56:00,axn,28.00
2022-10-17T05:57:00,axn,28.28
2022-10-17T05:58:00,axn,28.14
2022-10-17T05:59:00,axn,27.96
2022-10-17T06:00:00,axn,27.95
2022-10-17T06:01:00,axn,28.78
2022-10-17T06:02:00,axn,28.10
2022-10-17T06:03:00,axn,27.98
2022-10-17T06:04:00,axn,28.05
2022-10-17T06:05:00,axn,28.17
2022-10-17T06:06:00,axn,28.45
2022-10-17T06:07:00,axn,28.26
2022-10-17T06:08:00,axn,28.22
2022-10-17T06:09:00,axn,28.11
2022-10-17T06:10:00,axn,28.25
2022-10-17T06:11:00,axn,28.70
2022-10-17T06:12:00,axn,28.75
2022-10-17T06:13:00,axn,28.80
2022-10-17T06:14:00,axn,31.77
2022-10-17T06:15:00,axn,31.57
2022-10-17T06:16:00,axn,31.02
2022-10-17T06:17:00,axn,28.05
2022-10-17T06:18:00,axn,48.48
2022-10-17T06:19:00,axn,48.34
2022-10-17T06:20:00,axn,48.62
2022-10-17T06:21:00,axn,50.65
2022-10-17T06:22:00,axn,46.77
2022-10-17T06:23:00,axn,46.73
2022-10-17T06:24:00,axn,32.66
2022-10-17T06:25:00,axn,33.01
2022-10-17T06:26:00,axn,32.47
2022-10-17T06:27:00,axn,32.56
2022-10-17T06:28:00,axn,32.89
2022-10-17T06:29:00,axn,32.74
2022-10-17T06:30:00,axn,33.06
2022-10-17T06:31:00,axn,33.11
2022-10-17T06:32:00,axn,33.34
2022-10-17T06:33:00,axn,32.18
2022-10-17T06:34:00,axn,32.65
2022-10-17T06:35:00,axn,32.81
2022-10-17T06:36:00,axn,32.71
2022-10-17T06:37:00,axn,32.62
2022-10-17T06:38:00,axn,32.38
2022-10-17T06:39:00,axn,32.64
2022-10-17T06:40:00,axn,32.37
2022-10-17T06:41:00,axn,32.40
2022-10-17T06:42:00,axn,32.58
2022-10-17T06:43:00,axn,32.82
2022-10-17T06:44:00,axn,32.42
2022-10-17T06:45:00,axn,32.15
2022-10-17T06:46:00,axn,32.32
2022-10-17T06:47:00,axn,32.21
2022-10-17T06:48:00,axn,31.97
2022-10-17T06:49:00,axn,32.07
2022-10-17T06:50:00,axn,31.66
2022-10-17T06:51:00,axn,31.60
2022-10-17T06:52:00,axn,31.50
2022-10-17T06:53:00,axn,31.65
2022-10-17T06:54:00,axn,31.87
2022-10-17T06:55:00,axn,32.21
2022-10-17T06:56:00,axn,32.82
2022-10-17T06:57:00,axn,31.53
2022-10-17T06:58:00,axn,31.92
2022-10-17T06:59:00,axn,32.00
2022-10-17T07:00:00,axn,31.62
2022-10-17T07:01:00,axn,33.16
2022-10-17T07:02:00,axn,33.30
2022-10-17T07:03:00,axn,32.85
2022-10-17T07:04:00,axn,32.83
2022-10-17T07:05:00,axn,33.07
2022-10-17T07:06:00,axn,33.76
2022-10-17T07:07:00,axn,34.29
2022-10-17T07:08:00,axn,33.82
2022-10-17T07:09:00,axn,33.88
2022-10-17T07:10:00,axn,33.60
2022-10-17T07:11:00,axn,33.82
2022-10-17T07:12:00,axn,34.90
2022-10-17T07:13:00,axn,34.81
2022-10-17T07:14:00,axn,34.99
2022-10-17T07:15:00,axn,34.66
2022-10-17T07:16:00,axn,34.66
2022-10-17T07:17:00,axn,44.14
2022-10-17T07:18:00,axn,44.88
2022-10-17T07:19:00,axn,44.15
2022-10-17T07:20:00,axn,44.48
2022-10-17T07:21:00,axn,33.76
2022-10-17T07:22:00,axn,34.39
2022-10-17T07:23:00,axn,33.87
2022-10-17T07:24:00,axn,34.05
2022-10-17T07:25:00,axn,34.24
2022-10-17T07:26:00,axn,34.23
2022-10-17T07:27:00,axn,33.63
2022-10-17T07:28:00,axn,33.71
2022-10-17T07:29:00,axn,34.00
2022-10-17T07:30:00,axn,34.01
2022-10-17T07:31:00,axn,34.04
2022-10-17T07:32:00,axn,33.59
2022-10-17T07:33:00,axn,33.70
2022-10-17T07:34:00,axn,33.60
2022-10-17T07:35:00,axn,34.25
2022-10-17T07:36:00,axn,34.48
2022-10-17T07:37:00,axn,34.55
2022-10-17T07:38:00,axn,34.03
2022-10-17T07:39:00,axn,34.03
2022-10-17T07:40:00,axn,50.63
2022-10-17T07:41:00,axn,34.58
2022-10-17T07:42:00,axn,34.34
2022-10-17T07:43:00,axn,34.34
2022-10-17T07:44:00,axn,34.50
2022-10-17T07:45:00,axn,34.16
2022-10-17T07:46:00,axn,34.33
2022-10-17T07:47:00,axn,34.36
2022-10-17T07:48:00,axn,34.98
2022-10-17T07:49:00,axn,34.57
2022-10-17T07:50:00,axn,34.26
2022-10-17T07:51:00,axn,34.15
2022-10-17T07:52:00,axn,33.89
2022-10-17T07:53:00,axn,34.27
2022-10-17T07:54:00,axn,37.08
2022-10-17T07:55:00,axn,34.49
2022-10-17T07:56:00,axn,35.09
2022-10-17T07:57:00,axn,33.86
2022-10-17T07:58:00,axn,34.68
2022-10-17T07:59:00,axn,34.36
2022-10-17T08:00:00,axn,34.97
2022-10-17T08:01:00,axn,35.10
2022-10-17T08:02:00,axn,39.83
2022-10-17T08:03:00,axn,39.71
2022-10-17T08:04:00,axn,39.09
2022-10-17T08:05:00,axn,39.00
2022-10-17T08:06:00,axn,38.84
2022-10-17T08:07:00,axn,39.42
2022-10-17T08:08:00,axn,39.47
2022-10-17T08:09:00,axn,39.56
2022-10-17T08:10:00,axn,39.61
2022-10-17T08:11:00,axn,39.37
2022-10-17T08:12:00,axn,39.47
2022-10-17T08:13:00,axn,39.95
2022-10-17T08:14:00,axn,39.54
2022-10-17T08:15:00,axn,40.32
2022-10-17T08:16:00,axn,40.05
2022-10-17T08:17:00,axn,40.54
2022-10-17T08:18:00,axn,40.67
2022-10-17T08:19:00,axn,41.02
2022-10-17T08:20:00,axn,40.46
2022-10-17T08:21:00,axn,39.97
2022-10-17T08:22:00,axn,40.18
2022-10-17T08:23:00,axn,40.48
2022-10-17T08:24:00,axn,41.18
2022-10-17T08:25:00,axn,40.84
2022-10-17T08:26:00,axn,40.53
2022-10-17T08:27:00,axn,40.75
2022-10-17T08:28:00,axn,41.49
2022-10-17T08:29:00,axn,41.33
2022-10-17T08:30:00,axn,41.40
2022-10-17T08:31:00,axn,41.66
2022-10-17T08:32:00,axn,41.98
2022-10-17T08:33:00,axn,41.62
2022-10-17T08:34:00,axn,41.77
2022-10-17T08:35:00,axn,41.59
2022-10-17T08:36:00,axn,41.67
2022-10-17T08:37:00,axn,41.38
2022-10-17T08:38:00,axn,40.83
2022-10-17T08:39:00,axn,40.50
2022-10-17T08:40:00,axn,40.26
2022-10-17T08:41:00,axn,40.29
2022-10-17T08:42:00,axn,39.91
2022-10-17T08:43:00,axn,40.73
2022-10-17T08:44:00,axn,40.58
2022-10-17T08:45:00,axn,40.90
2022-10-17T08:46:00,axn,40.35
2022-10-17T08:47:00,axn,40.62
2022-10-17T08:48:00,axn,40.33
2022-10-17T08:49:00,axn,39.99
2022-10-17T08:50:00,axn,39.82
2022-10-17T08:51:00,axn,39.94
2022-10-17T08:52:00,axn,39.71
2022-10-17T08:53:00,axn,40.47
2022-10-17T08:54:00,axn,39.87
2022-10-17T08:55:00,axn,40.01
2022-10-17T08:56:00,axn,40.49
2022-10-17T08:57:00,axn,40.76
2022-10-17T08:58:00,axn,40.97
2022-10-17T08:59:00,axn,42.07
2022-10-17T09:00:00,axn,44.95
2022-10-17T09:01:00,axn,45.09
2022-10-17T09:02:00,axn,44.52
2022-10-17T09:03:00,axn,44.61
2022-10-17T09:04:00,axn,44.78
2022-10-17T09:05:00,axn,47.66
2022-10-17T09:06:00,axn,47.73
2022-10-17T09:07:00,axn,47.63
2022-10-17T09:08:00,axn,60.34
2022-10-17T09:09:00,axn,45.37
2022-10-17T09:10:00,axn,44.85
2022-10-17T09:11:00,axn,44.45
2022-10-17T09:12:00,axn,45.09
2022-10-17T09:13:00,axn,45.53
2022-10-17T09:14:00,axn,44.58
2022-10-17T09:15:00,axn,44.58
2022-10-17T09:16:00,axn,44.68
2022-10-17T09:17:00,axn,45.84
2022-10-17T09:18:00,axn,44.68
2022-10-17T09:19:00,axn,44.69
2022-10-17T09:20:00,axn,45.81
2022-10-17T09:21:00,axn,46.37
2022-10-17T09:22:00,axn,45.33
2022-10-17T09:23:00,axn,44.78
2022-10-17T09:24:00,axn,44.69
2022-10-17T09:25:00,axn,44.80
2022-10-17T09:26:00,axn,44.43
2022-10-17T09:27:00,axn,44.51
2022-10-17T09:28:00,axn,45.39
2022-10-17T09:29:00,axn,45.82
2022-10-17T09:30:00,axn,47.05
2022-10-17T09:31:00,axn,45.55
2022-10-17T09:32:00,axn,45.01
2022-10-17T09:33:00,axn,45.11
2022-10-17T09:34:00,axn,45.98
2022-10-17T09:35:00,axn,45.51
2022-10-17T09:36:00,axn,45.35
2022-10-17T09:37:00,axn,45.31
2022-10-17T09:38:00,axn,45.09
2022-10-17T09:39:00,axn,44.98
2022-10-17T09:40:00,axn,45.24
2022-10-17T09:41:00,axn,45.54
2022-10-17T09:42:00,axn,45.04
2022-10-17T09:43:00,axn,45.26
2022-10-17T09:44:00,axn,46.45
2022-10-17T09:45:00,axn,45.97
2022-10-17T09:46:00,axn,45.87
2022-10-17T09:47:00,axn,46.06
2022-10-17T09:48:00,axn,46.05
2022-10-17T09:49:00,axn,61.23
2022-10-17T09:50:00,axn,59.31
2022-10-17T09:51:00,axn,62.18
2022-10-17T09:52:00,axn,61.35
2022-10-17T09:53:00,axn,59.99
2022-10-17T09:54:00,axn,45.40
2022-10-17T09:55:00,axn,45.90
2022-10-17T09:56:00,axn,46.13
2022-10-17T09:57:00,axn,46.30
2022-10-17T09:58:00,axn,45.78
2022-10-17T09:59:00,axn,45.92
2022-10-17T10:00:00,axn,45.76
2022-10-17T10:01:00,axn,46.17
2022-10-17T10:02:00,axn,45.46
2022-10-17T10:03:00,axn,45.00
2022-10-17T10:04:00,axn,45.31
2022-10-17T10:05:00,axn,46.52
2022-10-17T10:06:00,axn,47.70
2022-10-17T10:07:00,axn,47.92
2022-10-17T10:08:00,axn,45.85
2022-10-17T10:09:00,axn,48.01
2022-10-17T10:10:00,axn,46.10
2022-10-17T10:11:00,axn,47.81
2022-10-17T10:12:00,axn,46.88
2022-10-17T10:13:00,axn,46.44
2022-10-17T10:14:00,axn,45.50
2022-10-17T10:15:00,axn,47.56
2022-10-17T10:16:00,axn,46.35
2022-10-17T10:17:00,axn,47.56
2022-10-17T10:18:00,axn,46.97
2022-10-17T10:19:00,axn,46.84
2022-10-17T10:20:00,axn,46.24
2022-10-17T10:21:00,axn,46.79
2022-10-17T10:22:00,axn,45.31
2022-10-17T10:23:00,axn,45.84
2022-10-17T10:24:00,axn,47.30
2022-10-17T10:25:00,axn,46.31
2022-10-17T10:26:00,axn,49.38
2022-10-17T10:27:00,axn,49.66
2022-10-17T10:28:00,axn,48.65
2022-10-17T10:29:00,axn,48.50
2022-10-17T10:30:00,axn,46.13
2022-10-17T10:31:00,axn,45.99
2022-10-17T10:32:00,axn,46.00
2022-10-17T10:33:00,axn,46.66
2022-10-17T10:34:00,axn,45.97
2022-10-17T10:35:00,axn,45.47
2022-10-17T10:36:00,axn,45.58
2022-10-17T10:37:00,axn,62.57
2022-10-17T10:38:00,axn,45.79
2022-10-17T10:39:00,axn,45.83
2022-10-17T10:40:00,axn,62.34
2022-10-17T10:41:00,axn,45.95
2022-10-17T10:42:00,axn,45.93
2022-10-17T10:43:00,axn,45.93
2022-10-17T10:44:00,axn,45.89
2022-10-17T10:45:00,axn,45.37
2022-10-17T10:46:00,axn,45.06
2022-10-17T10:47:00,axn,44.99
2022-10-17T10:48:00,axn,45.07
2022-10-17T10:49:00,axn,45.28
2022-10-17T10:50:00,axn,45.14
2022-10-17T10:51:00,axn,44.20
2022-10-17T10:52:00,axn,44.50
2022-10-17T10:53:00,axn,45.50
2022-10-17T10:54:00,axn,45.49
2022-10-17T10:55:00,axn,44.09
2022-10-17T10:56:00,axn,44.75
2022-10-17T10:57:00,axn,44.52
2022-10-17T10:58:00,axn,44.63
2022-10-17T10:59:00,axn,45.13
2022-10-17T11:00:00,axn,45.00
2022-10-17T11:01:00,axn,44.39
2022-10-17T11:02:00,axn,44.73
2022-10-17T11:03:00,axn,45.14
2022-10-17T11:04:00,axn,44.47
2022-10-17T11:05:00,axn,44.02
2022-10-17T11:06:00,axn,44.70
2022-10-17T11:07:00,axn,43.76
2022-10-17T11:08:00,axn,44.72
2022-10-17T11:09:00,axn,44.03
2022-10-17T11:10:00,axn,44.29
2022-10-17T11:11:00,axn,43.60
2022-10-17T11:12:00,axn,44.44
2022-10-17T11:13:00,axn,44.75
2022-10-17T11:14:00,axn,44.10
2022-10-17T11:15:00,axn,43.45
2022-10-17T11:16:00,axn,43.72
2022-10-17T11:17:00,axn,44.32
2022-10-17T11:18:00,axn,43.89
2022-10-17T11:19:00,axn,44.37
2022-10-17T11:20:00,axn,43.89
2022-10-17T11:21:00,axn,44.38
2022-10-17T11:22:00,axn,44.20
2022-10-17T11:23:00,axn,44.31
2022-10-17T11:24:00,axn,44.16
2022-10-17T11:25:00,axn,44.22
2022-10-17T11:26:00,axn,48.93
2022-10-17T11:27:00,axn,44.28
2022-10-17T11:28:00,axn,44.09
2022-10-17T11:29:00,axn,44.59
2022-10-17T11:30:00,axn,44.49
2022-10-17T11:31:00,axn,44.43
2022-10-17T11:32:00,axn,44.93
2022-10-17T11:33:00,axn,45.14
2022-10-17T11:34:00,axn,44.83
2022-10-17T11:35:00,axn,45.22
2022-10-17T11:36:00,axn,43.93
2022-10-17T11:37:00,axn,54.24
2022-10-17T11:38:00,axn,53.98
2022-10-17T11:39:00,axn,53.95
2022-10-17T11:40:00,axn,53.99
2022-10-17T11:41:00,axn,53.95
2022-10-17T11:42:00,axn,53.62
2022-10-17T11:43:00,axn,44.05
2022-10-17T11:44:00,axn,43.38
2022-10-17T11:45:00,axn,43.38
2022-10-17T11:46:00,axn,43.69
2022-10-17T11:47:00,axn,43.63
2022-10-17T11:48:00,axn,44.44
2022-10-17T11:49:00,axn,43.67
2022-10-17T11:50:00,axn,48.50
2022-10-17T11:51:00,axn,48.23
2022-10-17T11:52:00,axn,48.35
2022-10-17T11:53:00,axn,44.74
2022-10-17T11:54:00,axn,44.88
2022-10-17T11:55:00,axn,44.18
2022-10-17T11:56:00,axn,44.58
2022-10-17T11:57:00,axn,44.65
2022-10-17T11:58:00,axn,44.42
2022-10-17T11:59:00,axn,44.72
2022-10-17T12:00:00,axn,44.41
2022-10-17T12:01:00,axn,45.05
2022-10-17T12:02:00,axn,44.34
2022-10-17T12:03:00,axn,44.34
2022-10-17T12:04:00,axn,47.14
2022-10-17T12:05:00,axn,47.23
2022-10-17T12:06:00,axn,47.36
2022-10-17T12:07:00,axn,48.16
2022-10-17T12:08:00,axn,44.72
2022-10-17T12:09:00,axn,44.58
2022-10-17T12:10:00,axn,44.87
2022-10-17T12:11:00,axn,44.94
2022-10-17T12:12:00,axn,44.81
2022-10-17T12:13:00,axn,44.30
2022-10-17T12:14:00,axn,45.51
2022-10-17T12:15:00,axn,46.35
2022-10-17T12:16:00,axn,45.09
2022-10-17T12:17:00,axn,45.26
2022-10-17T12:18:00,axn,45.39
2022-10-17T12:19:00,axn,45.30
2022-10-17T12:20:00,axn,47.48
2022-10-17T12:21:00,axn,45.57
2022-10-17T12:22:00,axn,45.53
2022-10-17T12:23:00,axn,45.56
2022-10-17T12:24:00,axn,45.59
2022-10-17T12:25:00,axn,46.35
2022-10-17T12:26:00,axn,46.42
2022-10-17T12:27:00,axn,46.39
2022-10-17T12:28:00,axn,46.73
2022-10-17T12:29:00,axn,46.43
2022-10-17T12:30:00,axn,46.62
2022-10-17T12:31:00,axn,46.75
2022-10-17T12:32:00,axn,46.81
2022-10-17T12:33:00,axn,46.63
2022-10-17T12:34:00,axn,46.95
2022-10-17T12:35:00,axn,46.63
2022-10-17T12:36:00,axn,46.53
2022-10-17T12:37:00,axn,46.29
2022-10-17T12:38:00,axn,47.14
2022-10-17T12:39:00,axn,47.99
2022-10-17T12:40:00,axn,46.64
2022-10-17T12:41:00,axn,47.33
2022-10-17T12:42:00,axn,46.39
2022-10-17T12:43:00,axn,46.33
2022-10-17T12:44:00,axn,49.13
2022-10-17T12:45:00,axn,49.46
2022-10-17T12:46:00,axn,45.97
2022-10-17T12:47:00,axn,46.00
2022-10-17T12:48:00,axn,45.98
2022-10-17T12:49:00,axn,45.89
2022-10-17T12:50:00,axn,46.37
2022-10-17T12:51:00,axn,46.07
2022-10-17T12:52:00,axn,46.71
2022-10-17T12:53:00,axn,47.15
2022-10-17T12:54:00,axn,47.43
2022-10-17T12:55:00,axn,47.14
2022-10-17T12:56:00,axn,46.93
2022-10-17T12:57:00,axn,46.65
2022-10-17T12:58:00,axn,46.78
2022-10-17T12:59:00,axn,46.55
2022-10-17T13:00:00,axn,46.48
2022-10-17T13:01:00,axn,46.44
2022-10-17T13:02:00,axn,46.64
2022-10-17T13:03:00,axn,46.91
2022-10-17T13:04:00,axn,46.86
2022-10-17T13:05:00,axn,46.22
2022-10-17T13:06:00,axn,49.11
2022-10-17T13:07:00,axn,48.88
2022-10-17T13:08:00,axn,48.49
2022-10-17T13:09:00,axn,59.70
2022-10-17T13:10:00,axn,59.67
2022-10-17T13:11:00,axn,59.89
2022-10-17T13:12:00,axn,59.29
2022-10-17T13:13:00,axn,45.50
2022-10-17T13:14:00,axn,45.41
2022-10-17T13:15:00,axn,45.74
2022-10-17T13:16:00,axn,45.25
2022-10-17T13:17:00,axn,45.53
2022-10-17T13:18:00,axn,45.56